Fullerton, CA

2:03 AM PDT on October 24, 2017 (GMT -0700)
Fullerton Municipal

Weather History for KFUL - April, 2013

Change the Weather History Date:

Wednesday, April 24, 2013

  Actual Average Record
Temperature  
Mean Temperature 64 °F 64 °F  
Max Temperature 66 °F 74 °F 94 °F (2001)
Min Temperature 61 °F 54 °F 49 °F (2006)
Degree Days  
Heating Degree Days 1 3  
Month to date heating degree days 11 89  
Since 1 July heating degree days 726 1181  
Cooling Degree Days 0 1  
Month to date cooling degree days 58 21  
Year to date cooling degree days 109 43  
Growing Degree Days 14 (Base 50)    
Moisture  
Dew Point 51 °F    
Average Humidity 62    
Maximum Humidity 72    
Minimum Humidity 52    
Precipitation  
Precipitation 0.00 in 0.03 in 0.26 in (2005)
Month to date precipitation 0.03 0.71  
Year to date precipitation 2.06 9.15  
Since 1 July precipitation 5.37  
Snow  
Snow 0.00 in - - ()
Month to date snowfall 0.0  
Year to date snowfall 0.0  
Snow Depth 0.00 in    
Sea Level Pressure  
Sea Level Pressure 29.93 in    
Wind  
Wind Speed 5 mph (SSW)    
Max Wind Speed 12 mph    
Max Gust Speed 15 mph    
Visibility 10 miles    
Events Rain    
T = Trace of Precipitation, MM = Missing Value Source: NWS Daily Summary

Daily Weather History Graph

Daily Weather History Graph

Search for Another Location

Airport or City:

Trip Planner

Search our weather history database for the weather conditions in past years. The results will help you decide how hot, cold, wet, or windy it might be!

Date:

Astronomy

Apr. 24, 2013 Rise Set
Actual Time 6:10 AM PDT 7:30 PM PDT
Civil Twilight 5:43 AM PDT 7:56 PM PDT
Nautical Twilight 5:12 AM PDT 8:27 PM PDT
Astronomical Twilight 4:40 AM PDT 9:00 PM PDT
Moon 6:40 PM PDT 5:13 AM PDT
Length of Visible Light 14h 12m
Length of Day
13h 20m
Waxing Gibbous, 98% of the Moon is Illuminated
Apr 24
Waxing Gibbous
Apr 25
Full
May 2
Last Quarter
May 9
New
May 17
First Quarter

Hourly Weather History & Observations

Time (PDT) Temp. Dew Point Humidity Pressure Visibility Wind Dir Wind Speed Gust Speed Precip Events Conditions
12:53 AM 63.0 °F 52.0 °F 67% 29.94 in 10.0 mi Calm Calm - N/A   Overcast
1:53 AM 63.0 °F 52.0 °F 67% 29.93 in 10.0 mi Calm Calm - N/A   Overcast
3:53 AM 62.1 °F 52.0 °F 70% 29.91 in 10.0 mi SSW 3.5 mph - N/A   Overcast
4:53 AM 63.0 °F 52.0 °F 67% 29.90 in 10.0 mi Calm Calm - N/A   Overcast
5:53 AM 62.1 °F 52.0 °F 70% 29.90 in 10.0 mi SE 4.6 mph - N/A   Overcast
6:53 AM 62.1 °F 53.1 °F 72% 29.91 in 10.0 mi SSE 4.6 mph - N/A   Overcast
7:27 AM 62.6 °F 53.6 °F 72% 29.92 in 10.0 mi SSE 4.6 mph - N/A   Overcast
7:37 AM 62.6 °F 53.6 °F 72% 29.92 in 10.0 mi SSE 4.6 mph - N/A   Overcast
7:53 AM 62.1 °F 54.0 °F 75% 29.93 in 10.0 mi SSE 6.9 mph - N/A   Overcast
8:53 AM 63.0 °F 53.1 °F 70% 29.94 in 10.0 mi Calm Calm - N/A   Overcast
9:53 AM 64.0 °F 52.0 °F 65% 29.94 in 10.0 mi South 5.8 mph - N/A   Overcast
10:53 AM 62.1 °F 54.0 °F 75% 29.95 in 10.0 mi SSW 9.2 mph - N/A   Overcast
11:20 AM 62.6 °F 53.6 °F 72% 29.96 in 8.0 mi SSW 8.1 mph - N/A   Overcast
11:53 AM 62.1 °F 54.0 °F 75% 29.95 in 5.0 mi SW 6.9 mph - N/A   Haze
12:53 PM 63.0 °F 53.1 °F 70% 29.95 in 10.0 mi SSW 8.1 mph - N/A   Overcast
1:01 PM 62.6 °F 51.8 °F 68% 29.95 in 10.0 mi WSW 4.6 mph - N/A   Overcast
1:53 PM 64.0 °F 51.1 °F 63% 29.94 in 10.0 mi SW 6.9 mph - N/A   Overcast
2:53 PM 64.9 °F 51.1 °F 61% 29.93 in 10.0 mi South 8.1 mph - N/A   Overcast
3:53 PM 64.9 °F 48.9 °F 56% 29.92 in 10.0 mi South 8.1 mph - N/A   Overcast
4:53 PM 64.9 °F 46.9 °F 52% 29.92 in 10.0 mi South 4.6 mph - N/A   Overcast
5:53 PM 66.0 °F 46.0 °F 48% 29.91 in 10.0 mi South 5.8 mph - N/A   Overcast
6:53 PM 64.9 °F 46.9 °F 52% 29.92 in 10.0 mi South 3.5 mph - N/A   Overcast
7:53 PM 64.9 °F 46.9 °F 52% 29.93 in 10.0 mi Calm Calm - N/A   Overcast
8:53 PM 64.0 °F 50.0 °F 60% 29.95 in 10.0 mi SW 6.9 mph - N/A   Overcast
9:53 PM 63.0 °F 48.9 °F 60% 29.97 in 10.0 mi SSW 3.5 mph - N/A   Overcast
10:53 PM 62.1 °F 51.1 °F 67% 29.97 in 10.0 mi SW 4.6 mph - 0.00 in   Overcast
11:53 PM 61.0 °F 52.0 °F 72% 29.97 in 10.0 mi Calm Calm - 0.01 in Rain Light Rain